Franklin, VA

11:00 PM EDT on August 22, 2017 (GMT -0400)
Franklin Municipal-Rose

Weather History for KFKN - May, 2009

Change the Weather History Date:

Wednesday, May 13, 2009

  Actual Average (KSFQ) Record (KSFQ)
Temperature  
Mean Temperature 62 °F -  
Max Temperature 75 °F 77 °F 96 °F (2000)
Min Temperature 48 °F 55 °F 41 °F (1963)
Degree Days  
Heating Degree Days 4    
Growing Degree Days 12 (Base 50)    
Moisture  
Dew Point 49 °F    
Average Humidity 65    
Maximum Humidity 100    
Minimum Humidity 36    
Precipitation  
Precipitation 0.00 in - - ()
Sea Level Pressure  
Sea Level Pressure 30.34 in    
Wind  
Wind Speed 3 mph (ESE)    
Max Wind Speed 10 mph    
Max Gust Speed -    
Visibility 10 miles    
Events      
Averages and records for this station are not official NWS values.
T = Trace of Precipitation, MM = Missing Value Source: NWS Daily Summary

Daily Weather History Graph

Daily Weather History Graph

Search for Another Location

Airport or City:

Trip Planner

Search our weather history database for the weather conditions in past years. The results will help you decide how hot, cold, wet, or windy it might be!

Date:

Astronomy

May. 13, 2009 Rise Set
Actual Time 6:01 AM EDT 8:06 PM EDT
Civil Twilight 5:33 AM EDT 8:35 PM EDT
Nautical Twilight 4:58 AM EDT 9:10 PM EDT
Astronomical Twilight 4:20 AM EDT 9:48 PM EDT
Moon No Moon Rise 9:13 AM EDT (5/13)
Length of Visible Light 15h 02m
Length of Day
14h 04m
Waning Gibbous, 82% of the Moon is Illuminated
May 13
Waning Gibbous
May 17
Last Quarter
May 24
New
May 30
First Quarter
Jun 7
Full

Hourly Weather History & Observations

Time (EDT) Temp. Dew Point Humidity Pressure Visibility Wind Dir Wind Speed Gust Speed Precip Events Conditions
12:00 AM 55.4 °F 53.6 °F 94% 30.30 in 10.0 mi Calm Calm - N/A   Clear
12:20 AM 55.4 °F 53.6 °F 94% 30.30 in 10.0 mi Calm Calm - N/A   Clear
1:00 AM 53.6 °F 53.6 °F 100% 30.30 in 10.0 mi Calm Calm - N/A   Clear
1:20 AM 51.8 °F 51.8 °F 100% 30.30 in 10.0 mi Calm Calm - N/A   Clear
1:40 AM 53.6 °F 51.8 °F 94% 30.30 in 10.0 mi Calm Calm - N/A   Clear
2:00 AM 51.8 °F 50.0 °F 94% 30.30 in 7.0 mi Calm Calm - N/A   Clear
2:20 AM 51.8 °F 51.8 °F 100% 30.30 in 10.0 mi Calm Calm - N/A   Clear
2:40 AM 51.8 °F 50.0 °F 94% 30.30 in 10.0 mi Calm Calm - N/A   Clear
3:00 AM 51.8 °F 50.0 °F 94% 30.31 in 10.0 mi Calm Calm - N/A   Clear
3:20 AM 51.8 °F 50.0 °F 94% 30.30 in 10.0 mi Calm Calm - N/A   Clear
3:40 AM 50.0 °F 48.2 °F 94% 30.31 in 10.0 mi Calm Calm - N/A   Clear
4:00 AM 50.0 °F 48.2 °F 94% 30.31 in 10.0 mi Calm Calm - N/A   Clear
4:20 AM 50.0 °F 48.2 °F 94% 30.31 in 10.0 mi Calm Calm - N/A   Clear
4:40 AM 50.0 °F 48.2 °F 94% 30.31 in 7.0 mi Calm Calm - N/A   Clear
5:00 AM 48.2 °F 48.2 °F 100% 30.30 in 10.0 mi Calm Calm - N/A   Clear
5:20 AM 48.2 °F 48.2 °F 100% 30.31 in 10.0 mi Calm Calm - N/A   Clear
5:40 AM 48.2 °F 46.4 °F 93% 30.32 in 10.0 mi Calm Calm - N/A   Clear
6:00 AM 48.2 °F 46.4 °F 93% 30.33 in 10.0 mi Calm Calm - N/A   Clear
6:20 AM 48.2 °F 46.4 °F 93% 30.34 in 10.0 mi Calm Calm - N/A   Clear
7:00 AM 50.0 °F 48.2 °F 94% 30.34 in 10.0 mi Calm Calm - N/A   Clear
7:20 AM 51.8 °F 51.8 °F 100% 30.35 in 10.0 mi Calm Calm - N/A   Clear
7:40 AM 55.4 °F 53.6 °F 94% 30.35 in 10.0 mi Calm Calm - N/A   Clear
8:00 AM 59.0 °F 55.4 °F 88% 30.35 in 10.0 mi East 3.5 mph - N/A   Clear
8:40 AM 64.4 °F 53.6 °F 68% 30.36 in 10.0 mi East 4.6 mph - N/A   Clear
9:00 AM 66.2 °F 53.6 °F 64% 30.37 in 10.0 mi East 5.8 mph - N/A   Clear
9:20 AM 68.0 °F 51.8 °F 56% 30.37 in 10.0 mi East 5.8 mph - N/A   Clear
9:40 AM 69.8 °F 51.8 °F 53% 30.37 in 10.0 mi East 5.8 mph - N/A   Clear
10:00 AM 69.8 °F 50.0 °F 49% 30.37 in 10.0 mi East 6.9 mph - N/A   Clear
10:20 AM 71.6 °F 51.8 °F 50% 30.37 in 10.0 mi SE 5.8 mph - N/A   Clear
10:40 AM 71.6 °F 48.2 °F 43% 30.38 in 10.0 mi ESE 6.9 mph - N/A   Clear
11:00 AM 71.6 °F 46.4 °F 41% 30.39 in 10.0 mi East 3.5 mph - N/A   Clear
11:20 AM 71.6 °F 46.4 °F 41% 30.39 in 10.0 mi East 6.9 mph - N/A   Clear
11:40 AM 71.6 °F 46.4 °F 41% 30.39 in 10.0 mi ESE 4.6 mph - N/A   Clear
12:00 PM 73.4 °F 46.4 °F 38% 30.38 in 10.0 mi East 8.1 mph - N/A   Clear
12:20 PM 73.4 °F 46.4 °F 38% 30.37 in 10.0 mi ENE 8.1 mph - N/A   Clear
12:40 PM 73.4 °F 46.4 °F 38% 30.36 in 10.0 mi East 9.2 mph - N/A   Clear
1:00 PM 73.4 °F 44.6 °F 36% 30.36 in 10.0 mi ESE 9.2 mph - N/A   Clear
1:20 PM 73.4 °F 44.6 °F 36% 30.36 in 10.0 mi SSE 9.2 mph - N/A   Clear
1:40 PM 73.4 °F 46.4 °F 38% 30.35 in 10.0 mi SE 5.8 mph - N/A   Clear
2:00 PM 73.4 °F 46.4 °F 38% 30.35 in 10.0 mi ESE 9.2 mph - N/A   Clear
2:20 PM 75.2 °F 46.4 °F 36% 30.35 in 10.0 mi SE 6.9 mph - N/A   Clear
2:40 PM 73.4 °F 46.4 °F 38% 30.34 in 10.0 mi SE 8.1 mph - N/A   Clear
3:00 PM 75.2 °F 46.4 °F 36% 30.34 in 10.0 mi SE 6.9 mph - N/A   Clear
3:20 PM 73.4 °F 46.4 °F 38% 30.34 in 10.0 mi SE 4.6 mph - N/A   Clear
3:40 PM 73.4 °F 46.4 °F 38% 30.34 in 10.0 mi ESE 10.4 mph - N/A   Clear
4:00 PM 73.4 °F 48.2 °F 41% 30.34 in 10.0 mi SE 5.8 mph - N/A   Scattered Clouds
4:20 PM 73.4 °F 48.2 °F 41% 30.33 in 10.0 mi ESE 8.1 mph - N/A   Clear
4:40 PM 73.4 °F 48.2 °F 41% 30.33 in 10.0 mi SE 5.8 mph - N/A   Clear
5:00 PM 73.4 °F 48.2 °F 41% 30.33 in 10.0 mi ESE 9.2 mph - N/A   Clear
5:20 PM 73.4 °F 48.2 °F 41% 30.33 in 10.0 mi SE 8.1 mph - N/A   Clear
5:40 PM 73.4 °F 48.2 °F 41% 30.33 in 10.0 mi ESE 9.2 mph - N/A   Clear
6:00 PM 71.6 °F 48.2 °F 43% 30.33 in 10.0 mi SE 8.1 mph - N/A   Clear
6:20 PM 71.6 °F 50.0 °F 46% 30.33 in 10.0 mi SE 9.2 mph - N/A   Clear
6:40 PM 71.6 °F 50.0 °F 46% 30.33 in 10.0 mi SE 8.1 mph - N/A   Clear
7:00 PM 69.8 °F 50.0 °F 49% 30.33 in 10.0 mi SE 6.9 mph - N/A   Clear
7:20 PM 69.8 °F 51.8 °F 53% 30.33 in 10.0 mi SE 8.1 mph - N/A   Clear
7:40 PM 68.0 °F 51.8 °F 56% 30.33 in 10.0 mi SE 5.8 mph - N/A   Clear
8:00 PM 66.2 °F 51.8 °F 60% 30.33 in 10.0 mi ESE 4.6 mph - N/A   Clear
8:20 PM 66.2 °F 51.8 °F 60% 30.33 in 10.0 mi SE 4.6 mph - N/A   Clear
8:40 PM 64.4 °F 51.8 °F 64% 30.33 in 10.0 mi SE 5.8 mph - N/A   Clear
9:00 PM 64.4 °F 51.8 °F 64% 30.33 in 10.0 mi ESE 4.6 mph - N/A   Clear
9:20 PM 62.6 °F 51.8 °F 68% 30.33 in 10.0 mi ESE 3.5 mph - N/A   Clear
9:40 PM 62.6 °F 51.8 °F 68% 30.33 in 10.0 mi SE 5.8 mph - N/A   Clear
10:00 PM 62.6 °F 51.8 °F 68% 30.34 in 10.0 mi ESE 4.6 mph - N/A   Clear
10:20 PM 62.6 °F 53.6 °F 72% 30.34 in 10.0 mi SE 4.6 mph - N/A   Clear
10:40 PM 60.8 °F 53.6 °F 77% 30.35 in 10.0 mi ESE 3.5 mph - N/A   Clear
11:00 PM 60.8 °F 53.6 °F 77% 30.35 in 10.0 mi ESE 3.5 mph - N/A   Clear
11:20 PM 59.0 °F 53.6 °F 82% 30.35 in 10.0 mi Calm Calm - N/A   Clear
11:40 PM 59.0 °F 53.6 °F 82% 30.34 in 10.0 mi ESE 3.5 mph - N/A   Unknown